Date String (YYYY-MM-DD hh:mm:ss) UTC,Instrument flags,Ambient pressure (hPa),Sample flow (lpm),Bypass flow (lpm),Sample temperature (°C),Ambient temperature (°C),ASC tube jacket temperature (°C),LED temperature (°C),Box temperature (°C),Sample RH (%),Span deviation,Mass concentration (μg/m³),Mass concentration (μg/m³),Mass concentration (μg/m³)
DateTimeUTC,F1_M11,P_M11,Q1_M11,Q2_M11,T1_M11,T2_M11,T3_M11,T4_M11,T5_M11,U1_M11,ZSPAN_M11,X0_M11,X2_M11,X1_M11
2023-02-15 02:00:00,,0809.4,5.03,0.00,22.6,22.6,00.0,31.2,24.7,08.4,0000.0,0009.70,0002.52,0001.41
2023-02-15 02:01:00,,0809.5,4.97,0.00,22.6,22.3,00.0,31.3,24.6,08.4,0000.0,0009.75,0002.53,0001.41
2023-02-15 02:02:00,,0809.6,5.02,0.00,22.6,21.9,00.0,31.3,24.5,08.4,0000.0,0009.85,0002.52,0001.42
2023-02-15 02:03:00,,0809.7,4.99,0.00,22.6,21.6,00.0,31.3,24.4,08.4,0000.0,0010.08,0002.54,0001.42
2023-02-15 02:04:00,,0809.8,4.99,0.00,22.5,21.3,00.0,31.3,24.3,08.5,0000.0,0010.63,0002.57,0001.42
2023-02-15 02:05:00,,0809.9,5.01,0.00,22.5,21.1,00.0,31.3,24.3,08.5,0000.0,0009.80,0002.55,0001.41
2023-02-15 02:06:00,,0809.9,5.00,0.00,22.5,21.0,00.0,31.3,24.3,08.5,0000.0,0009.54,0002.51,0001.41
2023-02-15 02:07:00,,0809.9,5.01,0.00,22.5,20.9,00.0,31.3,24.2,08.4,0000.0,0010.04,0002.49,0001.40
2023-02-15 02:08:00,,0809.9,4.99,0.00,22.4,20.7,00.0,31.3,24.2,08.3,0000.0,0009.77,0002.53,0001.39
2023-02-15 02:09:00,,0809.8,5.00,0.00,22.4,20.6,00.0,31.3,24.1,08.3,0000.0,0009.14,0002.42,0001.39
2023-02-15 02:10:00,,0809.9,5.00,0.00,22.4,20.6,00.0,31.3,24.1,08.2,0000.0,0009.04,0002.30,0001.35
2023-02-15 02:11:00,,0809.9,4.99,0.00,22.4,20.6,00.0,31.3,24.1,08.2,0000.0,0008.90,0002.27,0001.34
2023-02-15 02:12:00,,0810.0,5.01,0.00,22.4,20.6,00.0,31.3,24.1,08.3,0000.0,0009.05,0002.23,0001.32
2023-02-15 02:13:00,,0809.9,5.00,0.00,22.3,20.6,00.0,31.3,24.1,08.3,0000.0,0008.93,0002.15,0001.30
2023-02-15 02:14:00,,0810.0,5.00,0.00,22.3,20.6,00.0,31.3,24.1,08.3,0000.0,0008.94,0002.12,0001.28
2023-02-15 02:15:00,,0810.1,5.01,0.00,22.3,20.6,00.0,31.3,24.1,08.2,0000.0,0007.23,0002.07,0001.27
2023-02-15 02:16:00,,0810.1,4.99,0.00,22.3,20.5,00.0,31.2,24.1,08.2,0000.0,0006.96,0002.03,0001.27
2023-02-15 02:17:00,,0810.1,5.01,0.00,22.3,20.5,00.0,31.2,24.0,08.1,0000.0,0006.52,0002.04,0001.27
2023-02-15 02:18:00,,0810.1,4.99,0.00,22.3,20.6,00.0,31.2,24.1,07.9,0000.0,0005.58,0002.05,0001.25
2023-02-15 02:19:00,,0810.2,5.02,0.00,22.3,21.2,00.0,31.2,24.2,07.8,0000.0,0005.15,0002.01,0001.24
2023-02-15 02:20:00,,0810.2,5.01,0.00,22.4,22.2,00.0,31.2,24.4,07.9,0000.0,0005.02,0002.01,0001.23
2023-02-15 02:21:00,,0810.2,5.01,0.00,22.5,22.9,00.0,31.2,24.6,07.9,0000.0,0005.40,0002.05,0001.24
2023-02-15 02:22:00,,0810.3,4.98,0.00,22.6,22.6,00.0,31.2,24.6,07.8,0000.0,0007.24,0002.03,0001.24
2023-02-15 02:23:00,,0810.4,5.01,0.00,22.6,22.2,00.0,31.3,24.6,07.8,0000.0,0007.15,0002.05,0001.23
2023-02-15 02:24:00,,0810.3,5.01,0.00,22.6,21.9,00.0,31.3,24.5,07.8,0000.0,0006.93,0002.04,0001.22
2023-02-15 02:25:00,,0810.4,5.01,0.00,22.6,21.7,00.0,31.3,24.4,07.7,0000.0,0006.71,0002.03,0001.22
2023-02-15 02:26:00,,0810.4,5.03,0.00,22.6,21.5,00.0,31.4,24.4,07.7,0000.0,0006.84,0002.05,0001.22
2023-02-15 02:27:00,,0810.5,4.98,0.00,22.6,21.3,00.0,31.4,24.4,07.9,0000.0,0006.85,0002.05,0001.20
2023-02-15 02:28:00,,0810.6,5.01,0.00,22.5,21.2,00.0,31.4,24.3,08.0,0000.0,0006.72,0002.08,0001.20
2023-02-15 02:29:00,,0810.6,4.99,0.00,22.5,21.0,00.0,31.4,24.3,07.9,0000.0,0006.75,0002.05,0001.21
2023-02-15 02:30:00,,0810.7,5.00,0.00,22.5,20.8,00.0,31.4,24.3,07.8,0000.0,0006.76,0002.03,0001.21
2023-02-15 02:31:00,,0810.8,5.00,0.00,22.5,20.8,00.0,31.4,24.2,07.7,0000.0,0007.01,0002.00,0001.20
2023-02-15 02:32:00,,0810.9,5.01,0.00,22.5,20.8,00.0,31.4,24.2,07.8,0000.0,0007.26,0001.97,0001.19
2023-02-15 02:33:00,,0810.9,5.02,0.00,22.5,20.8,00.0,31.3,24.2,07.8,0000.0,0005.34,0001.99,0001.18
2023-02-15 02:34:00,,0810.9,5.00,0.00,22.4,20.8,00.0,31.3,24.2,07.8,0000.0,0004.98,0002.00,0001.19
2023-02-15 02:35:00,,0810.9,5.01,0.00,22.4,20.8,00.0,31.3,24.2,07.8,0000.0,0005.86,0002.02,0001.20
2023-02-15 02:36:00,,0811.0,4.99,0.00,22.4,20.8,00.0,31.3,24.2,07.6,0000.0,0005.87,0002.02,0001.21
2023-02-15 02:37:00,,0811.0,5.00,0.00,22.4,20.7,00.0,31.3,24.2,07.6,0000.0,0006.33,0002.04,0001.22
2023-02-15 02:38:00,,0810.9,4.99,0.00,22.4,20.7,00.0,31.3,24.2,07.7,0000.0,0006.46,0002.01,0001.23
2023-02-15 02:39:00,,0810.9,5.00,0.00,22.4,20.8,00.0,31.3,24.2,07.8,0000.0,0006.34,0001.94,0001.21
2023-02-15 02:40:00,,0810.8,5.00,0.00,22.4,20.7,00.0,31.3,24.2,07.6,0000.0,0007.28,0001.93,0001.22
2023-02-15 02:41:00,,0810.8,4.98,0.00,22.4,20.8,00.0,31.3,24.2,07.6,0000.0,0007.82,0002.00,0001.22
2023-02-15 02:42:00,,0810.8,5.00,0.00,22.4,20.8,00.0,31.3,24.1,07.7,0000.0,0007.71,0002.02,0001.21
2023-02-15 02:43:00,,0810.8,5.00,0.00,22.3,20.7,00.0,31.3,24.1,07.8,0000.0,0007.64,0002.05,0001.22
2023-02-15 02:44:00,,0810.9,5.00,0.00,22.3,20.7,00.0,31.3,24.1,07.6,0000.0,0007.56,0001.99,0001.21
2023-02-15 02:45:00,,0810.9,5.01,0.00,22.3,20.8,00.0,31.2,24.1,07.7,0000.0,0007.33,0001.96,0001.19
2023-02-15 02:46:00,,0811.0,4.96,0.00,22.4,21.7,00.0,31.2,24.3,07.6,0000.0,0006.75,0001.92,0001.18
2023-02-15 02:47:00,,0811.0,5.02,0.00,22.5,22.7,00.0,31.2,24.6,07.6,0000.0,0007.78,0001.86,0001.17
2023-02-15 02:48:00,,0811.0,4.97,0.00,22.6,23.0,00.0,31.3,24.7,07.4,0000.0,0007.67,0001.78,0001.14
2023-02-15 02:49:00,,0810.9,5.01,0.00,22.7,22.6,00.0,31.3,24.7,07.4,0000.0,0007.58,0001.75,0001.11
2023-02-15 02:50:00,,0811.0,5.01,0.00,22.7,22.2,00.0,31.3,24.6,07.4,0000.0,0007.52,0001.76,0001.10
2023-02-15 02:51:00,,0811.0,5.01,0.00,22.7,22.0,00.0,31.4,24.5,07.3,0000.0,0006.63,0001.70,0001.07
2023-02-15 02:52:00,,0811.0,5.00,0.00,22.7,21.7,00.0,31.4,24.5,07.3,0000.0,0005.50,0001.58,0001.05
2023-02-15 02:53:00,,0811.0,5.00,0.00,22.6,21.5,00.0,31.4,24.5,07.4,0000.0,0005.10,0001.52,0001.04
2023-02-15 02:54:00,,0811.0,5.00,0.00,22.6,21.4,00.0,31.4,24.5,07.4,0000.0,0004.90,0001.46,0001.01
2023-02-15 02:55:00,,0811.0,5.01,0.00,22.6,21.3,00.0,31.4,24.4,07.2,0000.0,0004.79,0001.43,0000.99
2023-02-15 02:56:00,,0811.0,5.00,0.00,22.6,21.2,00.0,31.4,24.4,07.4,0000.0,0004.73,0001.39,0000.97
2023-02-15 02:57:00,,0811.0,4.99,0.00,22.6,21.1,00.0,31.4,24.4,07.4,0000.0,0004.71,0001.37,0000.94
2023-02-15 02:58:00,,0811.0,5.01,0.00,22.6,21.1,00.0,31.4,24.4,07.4,0000.0,0003.64,0001.38,0000.92
2023-02-15 02:59:00,,0811.2,4.99,0.00,22.6,21.0,00.0,31.4,24.4,07.4,0000.0,0002.83,0001.39,0000.90
